Location: Gesvres
(49.0440°N, 2.8518°E)
Time: 15:16:14
(UTC+00:00)

NOSS 3-4 (C) - Pass Details

Date: 28 January 2023
Orbit: 830 x 1382 km, 63.4° (Epoch: 24 March)

Event Time Altitude Azimuth Distance (km) Brightness Sun altitude
Rises 17:35:09 0° 317° (NW) 3,760 6.9 -9.4°
Reaches altitude 10° 17:37:37 10° 316° (NW) 2,879 6.3 -9.8°
Maximum altitude 17:44:30 76° 232° (SW) 1,199 4.1 -10.9°
Drops below altitude 10° 17:52:22 10° 149° (SSE) 3,265 6.1 -12.1°
Sets 17:55:19 0° 148° (SSE) 4,292 6.7 -12.6°
